Location: Kolonia Dworszowice Ko?cielne
(51.0917°N, 19.1293°E)
Time: 09:45:00
(UTC+00:00)

Daily predictions for brighter satellites

Satellite Brightness Start Highest point End
(mag) Time Altitude Azimuth Time Altitude Azimuth Time Altitude Azimuth
SPOT 1/Viking Rocket 3.5 16:19:12 10° SSE 16:24:16 66° ENE 16:29:22 10° N
UNK 3.7 16:19:54 10° NNE 16:24:29 85° ESE 16:29:04 10° SSW
Cosmos 2233 Rocket 4.3 16:18:45 10° N 16:24:47 47° ENE 16:30:50 10° SE
USA 306 1.6 16:24:50 10° WNW 16:28:05 74° NNE 16:30:18 10° ESE
Cosmos 2360 Rocket 4.0 16:24:14 10° NW 16:29:23 38° WSW 16:34:31 10° S
Cosmos 1725 Rocket 4.0 16:23:32 10° N 16:29:46 70° ENE 16:36:01 10° SSE
Cosmos 1833 4.3 16:24:52 10° SSW 16:30:40 88° ESE 16:36:30 10° NNE
SJ-6B 4.2 16:33:00 10° E 16:34:58 15° ENE 16:36:59 10° NNE
ATLAS 2AS CENTAUR R/B 3.4 16:29:04 10° WSW 16:35:49 50° NNW 16:42:26 10° NE
SL-08 R/B 4.5 16:30:28 10° N 16:36:38 63° ENE 16:42:41 10° SSE
CZ-2D R/B 3.7 16:34:06 10° SE 16:37:48 43° ENE 16:41:36 10° N
Cosmos 1674 Rocket 4.1 16:33:59 10° SSE 16:38:00 37° E 16:42:04 10° NNE
Meteor 2-16 Rocket 4.4 16:32:07 10° S 16:38:11 80° E 16:44:17 10° NNE
CZ-2D R/B 3.3 16:36:23 10° S 16:39:26 61° W 16:42:28 10° NNW
Cosmos 2061 Rocket 4.2 16:33:23 10° N 16:39:39 53° ENE 16:45:48 10° SSE
SL-16 R/B 3.5 16:33:42 10° N 16:39:39 50° WNW 16:45:36 10° SW
Cosmos 1315 Rocket 2.6 16:37:04 10° N 16:40:50 61° ENE 16:44:34 10° SSE
Cosmos 1867 3.7 16:35:41 10° SSW 16:41:01 61° SE 16:46:25 10° NE
CZ-4C R/B 2.4 16:42:27 10° S 16:46:19 36° ESE 16:51:06 10° NE
Radarsat Rocket 4.0 16:40:38 10° SE 16:46:21 60° ENE 16:52:32 10° NNW
Meteor 2-1 Rocket 4.4 16:42:23 10° N 16:48:03 55° ENE 16:53:49 10° SSE
Lacrosse 5 rocket 0.9 16:48:30 10° SW 16:51:59 76° SE 16:54:54 15° ENE
NOSS 0 Rocket 3.9 16:46:06 10° NNW 16:52:22 69° NE 16:58:35 10° SE
Cosmos 2151 Rocket 3.5 16:48:46 10° N 16:53:16 71° ENE 16:57:45 10° SSE
SAR-Lupe-1 4.1 16:49:58 10° SSE 16:53:31 82° WSW 16:57:08 10° NNW
Meteor 1-21 Rocket 4.4 16:49:41 10° SSW 16:55:36 86° WNW 17:01:35 10° NNE
Cosmos 2082 Rocket 4.4 16:53:58 10° WNW 16:57:42 18° NNW 17:01:29 10° N
Meteor 1-31 Rocket 4.4 16:58:59 14° NE 16:58:59 14° NE 17:00:28 10° NNE
CARTOSAT-1 3.6 16:55:03 10° SE 16:59:08 51° ENE 17:03:13 10° N
USA 267 3.4 16:54:28 11° ENE 17:00:51 74° NNW 17:07:22 10° WSW
Cosmos 1356 Rocket 3.2 16:58:48 10° NNW 17:02:44 87° ENE 17:06:41 10° SSE
Cosmos 1607 4.0 16:57:45 10° SSW 17:03:46 62° SE 17:09:54 10° NE
Cosmos 2297 Rocket 3.0 17:01:32 10° SSE 17:06:21 30° ESE 17:10:46 12° NE
USA 290 2.1 17:03:51 10° SSW 17:07:02 85° ESE 17:10:15 10° NNE
Cosmos 1814 Rocket 4.0 17:04:50 10° SSW 17:10:07 85° ESE 17:15:24 10° NNE
Cosmos 1125 Rocket 3.4 17:08:00 10° NNW 17:13:12 73° ENE 17:18:23 10° SSE
Cosmos 1455 Rocket 3.4 17:09:44 10° N 17:13:48 39° ENE 17:17:50 10° SE
Meteor 1-27 4.4 17:13:38 10° N 17:19:14 50° ENE 17:24:53 10° SSE
Cosmos 2221 Rocket 3.6 17:15:42 10° S 17:20:04 60° E 17:24:31 10° NNE
YAOGAN 1 3.0 17:16:37 10° S 17:20:49 62° WSW 17:25:04 10° NNW
Okean 2 Rocket 3.2 17:18:04 10° NNW 17:22:29 79° W 17:26:52 10° S
NOAA 6 4.0 17:18:34 10° SSE 17:23:43 87° ENE 17:28:55 10° NNW
NOSS 3-3 (C) 3.8 17:19:32 10° SSW 17:24:38 55° SE 17:29:14 17° NE
Spot 4 Rocket 4.2 17:20:53 10° S 17:25:59 74° WSW 17:31:08 10° NNW
Okean 1 Rocket 3.1 17:21:33 10° NNW 17:26:00 84° WSW 17:30:22 10° S
YAOGAN 3 4.4 17:23:18 10° SSE 17:27:30 81° ENE 17:31:44 10° NNW
COSMOS 2428 3.4 17:23:01 10° NW 17:28:39 59° WSW 17:34:14 10° S
Sich 1 Rocket 3.8 17:27:29 10° NNW 17:32:03 79° W 17:36:36 10° S
Terra 3.6 17:33:16 16° NE 17:33:16 16° NE 17:35:04 10° NNE
Cosmos 1980 3.6 17:26:49 10° NNW 17:32:32 79° ENE 17:38:11 10° SSE
Aureole 3 Rocket 2.7 17:33:07 10° NNW 17:37:36 86° W 17:41:01 10° S
Cosmos 2237 Rocket 2.1 17:32:26 10° NNW 17:38:09 80° ENE 17:43:51 10° SSE
Cosmos 158 Rocket 4.3 17:33:23 10° SW 17:38:12 62° WNW 17:43:03 10° NNE
ATLAS 5 CENTAUR R/B 4.1 17:36:10 10° WNW 17:39:45 24° WSW 17:43:54 10° S
CZ-4B R/B 4.2 17:39:53 39° E 17:40:19 41° ENE 17:44:02 10° N
Resurs 01 Rocket 1.6 17:36:43 10° SSE 17:41:06 82° WSW 17:45:32 10° NNW
Cosmos 44 Rocket 4.5 17:39:26 10° S 17:42:41 25° SE 17:42:41 25° SE
Cosmos 773 Rocket 4.5 17:38:58 10° S 17:43:46 37° ESE 17:44:58 33° ENE
ARIANE 6 FM1 Upper Stage 3.8 17:40:33 10° NW 17:43:55 26° NNE 17:44:13 25° NNE
COSMO-SKYMED 1 2.9 17:42:21 10° N 17:46:26 62° WNW 17:50:29 10° SSW
Cosmos 2228 3.0 17:44:45 10° N 17:48:49 49° ENE 17:49:16 47° E
Cosmos 2150 Rocket 4.0 17:46:26 10° NNW 17:51:33 58° ENE 17:53:31 35° ESE
Cosmos 2298 Rocket 4.1 17:47:00 10° NNW 17:52:14 56° ENE 17:54:11 36° ESE
NOSS 3-3 (A) 3.7 17:48:12 10° SW 17:53:28 90° SE 17:57:36 22° NE
Cosmos 1447 Rocket 4.5 17:48:16 10° SSW 17:54:24 82° W 18:00:35 10° N
USA 306 4.2 17:53:43 10° W 17:55:03 16° WSW 17:55:03 16° WSW
Cosmos 1782 4.4 17:53:54 10° N 17:55:10 19° NNE 17:55:10 19° NNE
Cosmos 1025 Rocket 4.1 17:55:13 10° SSW 17:59:21 46° WNW 18:03:33 10° N
Cosmos 2285 Rocket 4.4 17:53:18 10° NNW 17:59:41 65° WSW 18:05:59 10° S
SL-16 R/B 2.5 17:56:17 10° NNW 18:01:41 43° NE 18:02:27 41° ENE
Cosmos 1375 Rocket 4.5 17:58:10 10° SW 18:04:34 86° NW 18:09:12 21° NE
Cosmos 2227 Rocket 3.1 18:00:04 10° S 18:03:35 31° SE 18:03:35 31° SE
SJ-6B 3.2 18:05:12 14° S 18:07:59 52° W 18:11:23 10° NNW
SPOT 5 2.8 18:08:20 47° SE 18:09:39 69° ENE 18:14:41 10° N
NOSS 3-4 (A) 3.8 18:04:07 10° NW 18:10:45 87° SW 18:15:10 28° SE
NOSS 3-4 (C) 3.8 18:04:22 10° NW 18:11:02 88° SW 18:15:23 29° SE
Cosmos 1816 Rocket 4.4 18:09:53 10° S 18:15:55 61° E 18:22:02 10° NNE
Cosmos 2034 Rocket 3.9 18:09:52 10° N 18:16:00 62° ENE 18:18:04 41° SE
Cosmos 1072 Rocket 4.4 18:11:31 10° N 18:17:49 86° W 18:24:00 10° S
Okean O Rocket 4.0 18:24:52 12° N 18:24:52 12° N 18:25:14 10° N
CZ-4 R/B 3.1 18:28:09 22° N 18:28:09 22° N 18:29:36 10° NNW
CZ-4B R/B 3.4 18:26:45 50° NE 18:26:45 50° NE 18:31:13 10° N
Cosmos 1634 Rocket 4.4 18:20:11 10° N 18:25:26 42° NE 18:25:26 42° NE
ATLAS 2AS CENTAUR R/B 4.0 18:22:20 10° WNW 18:28:13 29° N 18:31:15 21° NNE
Lacrosse 5 rocket 2.5 18:25:45 10° W 18:28:21 33° NW 18:28:21 33° NW
CZ-4B DEB 4.0 18:29:56 61° SE 18:30:55 81° ENE 18:36:25 10° NNW
ADEOS 3.8 18:32:00 52° NNE 18:32:00 52° NNE 18:36:15 10° N
Meteor 1-31 Rocket 4.4 18:32:59 26° NNW 18:32:59 26° NNW 18:34:40 10° NNW
CZ-4C R/B 2.7 18:29:53 10° WSW 18:34:18 48° NNW 18:36:09 35° NNE
DMSP 5D-2 F-14 4.5 18:34:37 76° E 18:34:44 77° ENE 18:40:09 10° NNW
Feng Yun 1-1 Rocket 4.2 18:36:42 64° SSE 18:37:39 83° ENE 18:43:35 10° NNW
MetOp-B 4.5 18:40:10 52° NNE 18:40:10 52° NNE 18:44:25 10° N
USA 267 3.7 18:41:48 43° NE 18:43:32 54° N 18:49:51 10° WNW
Cosmos 1464 Rocket 4.5 18:39:36 10° NNW 18:45:52 61° W 18:52:04 10° S
CSL-04 Debris 4.4 18:44:38 39° S 18:46:37 66° WSW 18:52:04 10° NNW
ERS-1 Rocket 3.8 18:48:49 40° N 18:48:49 40° N 18:52:01 10° N
CSL-04 Rocket 4.1 18:47:26 34° SSW 18:49:35 58° WSW 18:54:49 10° NNW
Cosmos 2297 Rocket 2.7 18:44:30 10° SW 18:50:05 57° NW 18:52:37 31° N
Cosmos 2344 3.7 18:44:54 10° SSW 18:51:12 49° SSE 18:51:12 49° SSE
Cosmos 1943 4.2 18:47:48 10° NNW 18:51:36 34° N 18:51:36 34° N
DNEPR-1 R/B 4.3 18:49:34 10° NW 18:54:13 62° WSW 18:54:13 62° WSW
PAYLOAD B 4.5 19:05:27 66° WSW 19:05:31 66° WSW 19:11:07 10° NNW
Terra 3.6 19:11:53 24° NNW 19:11:53 24° NNW 19:13:46 10° NNW
Cosmos 2237 Rocket 4.5 19:17:30 10° NW 19:21:33 20° W 19:25:35 10° SW
SL-16 R/B 3.6 19:40:31 10° NW 19:44:19 35° WNW 19:44:19 35° WNW
Cosmos 2227 Rocket 4.2 19:43:39 10° SW 19:45:30 21° WSW 19:45:30 21° WSW
ATLAS 2AS CENTAUR R/B 4.2 20:14:49 10° NW 20:18:40 28° NNW 20:18:40 28° NNW
